ANA730 RJTT-RJFF

Flight info

Callsign ANA730
Flight time N/A
Altitude 36000
Route GUSRO Y20 KIRIN
Aircraft B744/H-SDE3FGHIM1M2RWXY/LB1

Departure

Time 2026-05-01 15:17
Airport Tokyo Haneda International Airport (RJTT)

Arrival

Time N/A
Airport Fukuoka Airport (RJFF)
Time Latitude Longitude Altitude Speed Heading
2026-05-01 14:50 35.55268 139.78876 25 ft 0 kts 239°
2026-05-01 15:08 35.55273 139.78885 25 ft 0 kts 239°
2026-05-01 15:08 35.55283 139.78906 24 ft 0 kts 239°
2026-05-01 15:08 35.55293 139.78928 23 ft 0 kts 239°
2026-05-01 15:08 35.55298 139.78954 23 ft 0 kts 279°
2026-05-01 15:09 35.55286 139.78978 22 ft 0 kts 327°
2026-05-01 15:09 35.55267 139.78989 22 ft 0 kts 333°
2026-05-01 15:11 35.55268 139.78987 22 ft 1 kts 331°
2026-05-01 15:12 35.55294 139.78970 23 ft 6 kts 330°
2026-05-01 15:12 35.55438 139.79010 20 ft 20 kts 52°
2026-05-01 15:12 35.55569 139.78996 18 ft 21 kts 329°
2026-05-01 15:13 35.55918 139.78749 19 ft 16 kts 329°
2026-05-01 15:14 35.56142 139.78590 17 ft 19 kts 330°
2026-05-01 15:14 35.56254 139.78511 17 ft 17 kts 329°
2026-05-01 15:14 35.56424 139.78558 13 ft 15 kts 58°
2026-05-01 15:15 35.56436 139.78764 12 ft 15 kts 159°
2026-05-01 15:15 35.56403 139.78787 12 ft 0 kts 148°
2026-05-01 15:16 35.55681 139.79301 12 ft 129 kts 150°
2026-05-01 15:16 35.53648 139.80798 584 ft 187 kts 142°
2026-05-01 15:17 35.51820 139.83081 1993 ft 188 kts 138°
2026-05-01 15:18 35.48674 139.87056 3037 ft 244 kts 141°
2026-05-01 15:18 35.47480 139.88501 3760 ft 245 kts 141°
2026-05-01 15:19 35.44562 139.93893 5588 ft 278 kts 96°
2026-05-01 15:19 35.45441 139.98383 7071 ft 277 kts 50°
2026-05-01 15:19 35.46769 140.00041 7802 ft 271 kts 27°
2026-05-01 15:20 35.50194 140.01106 9229 ft 253 kts 345°
2026-05-01 15:20 35.51844 140.00502 9977 ft 247 kts 333°
2026-05-01 15:20 35.53405 139.99710 10745 ft 246 kts 333°
2026-05-01 15:21 35.54999 139.98953 11473 ft 247 kts 334°
2026-05-01 15:21 35.56614 139.98178 12164 ft 249 kts 334°
2026-05-01 15:21 35.58228 139.97397 12764 ft 252 kts 333°
2026-05-01 15:21 35.59855 139.96588 13337 ft 256 kts 332°
2026-05-01 15:22 35.63508 139.95799 14213 ft 287 kts 358°
2026-05-01 15:22 35.65552 139.96060 14501 ft 303 kts 359°
2026-05-01 15:22 35.67723 139.96294 14632 ft 323 kts 358°
2026-05-01 15:23 35.69984 139.96515 15104 ft 332 kts 358°
2026-05-01 15:23 35.72287 139.96504 15677 ft 328 kts 345°
2026-05-01 15:23 35.74437 139.95683 16248 ft 323 kts 329°
2026-05-01 15:23 35.76257 139.94086 16888 ft 318 kts 312°
2026-05-01 15:24 35.77558 139.91908 17416 ft 320 kts 296°
2026-05-01 15:24 35.78238 139.89327 17969 ft 324 kts 280°
2026-05-01 15:24 35.78239 139.86548 18523 ft 329 kts 266°
2026-05-01 15:24 35.77846 139.83763 19045 ft 332 kts 264°
2026-05-01 15:25 35.77464 139.80916 19503 ft 335 kts 265°
2026-05-01 15:25 35.77105 139.78053 20040 ft 346 kts 265°
2026-05-01 15:25 35.76683 139.75131 20899 ft 353 kts 259°
2026-05-01 15:25 35.75758 139.72293 21749 ft 363 kts 249°
2026-05-01 15:26 35.74649 139.69522 22537 ft 366 kts 250°
2026-05-01 15:26 35.73574 139.66689 23338 ft 370 kts 249°
2026-05-01 15:26 35.72435 139.63856 24143 ft 371 kts 248°
2026-05-01 15:26 35.71227 139.61003 24822 ft 375 kts 248°
2026-05-01 15:27 35.70045 139.58171 25527 ft 377 kts 248°
2026-05-01 15:27 35.68959 139.55545 26132 ft 380 kts 249°
2026-05-01 15:27 35.67670 139.52423 26925 ft 380 kts 249°
2026-05-01 15:28 35.65761 139.46400 28145 ft 375 kts 266°
2026-05-01 15:28 35.65678 139.43182 28683 ft 375 kts 275°
2026-05-01 15:28 35.65789 139.40001 29263 ft 377 kts 275°
2026-05-01 15:29 35.65920 139.33542 30315 ft 378 kts 274°
2026-05-01 15:29 35.66001 139.30287 30774 ft 381 kts 273°
2026-05-01 15:29 35.66077 139.23738 31583 ft 387 kts 273°
2026-05-01 15:30 35.66170 139.17076 32304 ft 393 kts 273°
2026-05-01 15:31 35.65795 139.03653 33611 ft 407 kts 269°
2026-05-01 15:31 35.65468 138.96448 34271 ft 413 kts 269°
2026-05-01 15:32 35.65145 138.89371 34777 ft 418 kts 268°
2026-05-01 15:32 35.64807 138.82220 35345 ft 425 kts 268°
2026-05-01 15:33 35.64283 138.71095 35621 ft 445 kts 269°
2026-05-01 15:34 35.63723 138.59757 35565 ft 438 kts 268°